Wind_Speed
7 8 9 8 8 7 6 5 5 5 4 4 4 5 4 3 3 2 2 2 3 4 5 7 8 9 11 13 14 17 21 24 25 27 29 32 33 35 35 36 38 40 42 45 45 48 49 53 54
8 8 10 11 10 9 9 8 8 7 7 6 6 7 7 6 5 6 6 6 6 7 9 10 11 12 14 16 18 21 23 26 28 31 34 36 36 37 38 39 40 42 46 46 49 52 54 55 57
10 9 10 11 10 11 10 11 10 10 9 8 8 8 9 9 8 8 8 9 9 11 11 13 14 15 17 20 21 24 26 28 31 34 36 37 38 39 40 40 42 45 47 48 51 54 56 57 61
11 11 11 11 11 12 11 12 12 12 11 10 10 10 10 11 11 12 12 12 12 13 13 15 15 17 19 21 23 26 29 31 34 36 38 39 41 40 41 43 48 52 55 57 58 58 60 64 67
12 13 12 11 11 13 13 12 12 12 11 10 10 11 11 13 14 14 15 14 16 17 17 17 18 19 21 23 26 29 30 32 35 37 39 40 40 40 42 47 52 55 55 55 58 61 62 65 74
13 14 14 13 12 13 14 12 12 11 10 10 11 11 12 14 15 16 17 16 17 19 20 20 21 21 22 24 27 29 32 34 36 38 38 37 38 40 44 48 53 53 56 59 62 67 69 72 80
14 15 15 14 14 13 13 12 10 10 10 10 11 12 13 14 16 19 19 19 20 21 20 21 22 22 23 26 28 30 33 35 36 37 36 37 39 43 47 51 53 56 60 62 66 69 72 80 86
15 15 17 15 15 14 14 12 12 12 11 11 12 14 15 16 19 21 22 21 22 23 23 23 23 23 24 26 29 31 34 36 38 37 37 38 41 44 48 52 55 59 62 66 70 74 79 82 89
16 16 18 16 15 15 16 15 14 14 14 14 16 17 18 19 22 22 22 22 22 23 24 25 26 26 27 28 30 33 35 38 39 39 40 41 43 46 50 53 56 61 66 70 72 78 81 88 93
16 16 18 17 16 16 17 17 17 17 18 20 19 20 20 21 22 22 21 22 22 22 24 26 27 27 28 30 32 34 36 40 41 42 42 44 47 49 53 56 59 64 67 72 74 81 85 92 96
16 17 18 17 18 18 18 18 19 21 21 22 22 22 21 22 22 22 22 23 22 23 25 26 28 27 29 30 32 35 37 40 42 44 45 47 49 51 55 56 59 63 68 71 77 83 90 93 102
17 17 17 18 18 19 19 20 20 19 22 23 22 22 23 23 23 23 23 23 23 25 26 27 29 28 29 31 33 36 38 40 42 44 45 48 51 54 58 60 62 66 72 75 80 88 87 98 106
18 17 19 17 17 19 18 18 19 21 22 23 22 22 23 23 24 24 25 25 26 27 29 30 30 30 30 33 35 37 39 42 43 45 47 50 52 56 59 63 65 70 75 79 83 87 90 103 94
18 18 18 16 16 17 17 16 17 22 22 21 23 23 23 24 24 25 25 25 27 28 30 30 31 31 33 35 36 38 40 42 44 46 48 51 54 58 61 64 67 72 76 81 87 88 94 101 86
18 18 17 16 19 18 19 16 16 22 24 24 26 25 25 26 26 27 27 27 26 28 30 31 31 33 35 37 38 39 41 43 45 47 50 53 56 60 62 65 69 73 77 82 87 89 100 96 81
18 19 19 18 21 20 21 15 17 24 24 26 27 26 26 27 28 30 29 28 28 29 30 31 31 33 35 37 39 41 42 44 46 48 51 54 57 61 64 65 69 74 78 83 83 93 98 89 76
19 21 21 21 23 22 20 15 19 21 20 22 23 24 24 27 27 28 25 25 26 28 29 30 31 33 35 37 39 41 43 44 46 48 51 54 58 62 64 65 69 73 77 83 87 94 98 86 72
23 23 21 25 20 21 18 14 19 22 21 22 24 24 24 24 25 24 23 23 24 27 29 30 32 33 34 36 39 41 44 45 47 48 51 55 58 62 63 66 69 73 77 81 89 93 94 84 72
23 24 24 24 25 21 20 16 20 25 21 26 24 25 23 24 24 21 21 21 24 27 29 30 32 32 34 36 40 42 44 46 46 48 50 56 59 61 63 66 69 71 80 81 88 93 89 82 73
26 25 25 26 25 24 21 16 20 24 29 28 24 25 26 24 23 22 21 20 23 25 28 29 30 33 35 38 40 42 44 45 46 48 51 55 58 60 62 65 67 70 77 82 86 92 86 80 75
28 27 28 28 26 27 24 18 16 22 30 28 26 25 27 26 23 22 23 24 24 25 26 27 29 32 34 38 39 41 44 44 45 47 51 54 58 60 61 63 66 70 76 82 86 90 85 76 71
31 29 30 29 29 26 26 19 14 20 26 28 27 28 28 29 30 28 27 27 29 27 25 27 29 31 34 37 38 40 41 44 45 45 50 54 57 58 60 62 64 70 75 83 86 89 82 74 68
32 32 32 32 32 29 24 27 19 23 28 28 27 26 29 29 30 31 31 33 32 31 29 28 31 33 35 36 37 39 40 43 45 45 49 53 56 56 58 60 63 69 75 83 85 86 79 72 66
34 34 35 37 37 38 26 30 15 28 28 33 33 30 27 28 28 29 29 29 31 31 30 31 34 34 37 36 37 37 40 43 44 46 49 52 54 54 56 58 61 67 74 79 84 83 77 71 64
36 35 39 42 42 43 33 34 21 28 31 33 35 34 32 31 30 31 31 30 29 31 32 32 33 35 36 37 37 37 39 41 42 45 49 51 52 52 53 55 60 65 72 77 81 81 75 71 59
41 40 40 43 44 46 44 36 22 29 31 33 35 35 36 37 35 33 33 33 33 33 34 33 34 34 37 37 37 39 40 40 42 45 48 49 51 49 50 51 59 64 70 76 78 79 74 70 58
43 44 38 44 47 48 47 44 29 28 32 34 34 35 34 38 38 37 36 34 34 34 35 35 35 36 37 38 38 40 40 39 41 44 46 48 48 47 48 49 56 62 67 74 76 75 72 69 59
47 44 44 45 47 49 49 46 46 28 29 34 37 36 37 37 37 39 41 41 36 32 33 36 37 37 38 38 38 40 41 41 41 43 45 46 46 45 46 47 54 60 65 70 73 72 71 68 61
47 49 47 46 49 48 50 51 50 44 35 35 35 37 38 38 39 44 46 48 45 36 32 37 38 38 39 38 38 40 41 41 41 43 43 44 44 44 45 45 52 58 62 68 70 69 68 66 62
52 50 50 49 48 51 51 53 51 45 39 40 39 37 39 43 41 42 46 50 51 50 40 39 40 40 40 41 39 39 39 41 41 42 41 43 43 42 44 44 49 55 59 65 67 66 66 64 62
Wind_Direction
266 280 290 291 279 266 270 276 285 289 299 310 315 321 320 336 355 348 337 27 8 353 348 352 342 339 339 332 330 326 328 329 332 329 325 322 320 320 320 319 316 313 312 311 307 308 305 302 299
273 281 287 281 279 262 256 262 267 276 286 292 301 307 307 305 302 315 322 324 327 324 339 332 332 333 330 327 327 326 327 328 328 326 322 320 318 319 318 319 317 316 313 310 307 306 305 303 302
269 278 284 280 274 270 261 262 267 266 275 285 292 296 298 300 297 295 306 314 321 326 327 321 325 327 329 328 329 328 328 328 325 323 321 319 320 320 320 318 317 316 312 311 310 307 304 300 297
266 272 280 277 268 275 273 269 268 264 265 279 287 288 291 295 296 294 297 305 310 312 311 312 319 320 321 323 328 327 326 326 323 321 320 319 320 320 320 318 318 316 314 312 309 308 305 302 299
264 272 282 281 278 278 278 274 269 266 270 278 286 288 288 291 293 294 295 299 304 304 305 307 311 314 317 323 323 322 322 322 319 318 319 322 322 322 320 318 315 313 310 308 307 304 301 307 305
264 268 281 285 286 286 282 275 267 269 273 278 283 289 293 292 291 290 292 296 297 297 300 305 306 310 314 317 318 318 320 322 319 320 320 324 325 323 319 317 316 313 309 307 307 307 305 305 305
263 267 274 281 288 289 284 272 264 270 274 278 287 294 299 300 300 298 294 292 293 296 300 302 306 308 312 314 316 320 320 318 316 317 321 323 324 324 320 317 315 312 311 311 309 308 309 310 311
265 266 271 277 285 287 282 278 275 278 280 284 293 299 299 302 303 300 298 296 294 295 299 300 302 304 308 311 316 319 317 317 316 318 319 321 322 321 320 317 316 314 315 314 314 315 318 314 312
265 268 272 279 283 285 279 278 278 283 288 293 297 303 301 303 306 304 304 301 296 299 300 300 299 304 307 312 315 315 314 314 315 317 319 319 318 318 321 321 318 318 317 318 318 320 318 318 317
268 270 274 277 282 282 282 281 280 282 288 290 299 302 301 303 306 309 307 302 302 304 302 301 303 304 306 307 311 310 312 313 315 316 317 318 318 319 322 322 321 321 319 319 321 321 320 320 320
268 270 275 278 279 285 288 285 280 279 284 289 294 296 297 302 307 310 307 304 305 303 300 306 308 306 306 307 307 308 310 311 315 316 318 317 319 320 322 320 320 319 320 323 324 323 322 322 325
266 267 272 273 282 287 289 287 286 290 285 289 292 294 295 303 306 305 304 301 301 299 306 308 307 307 308 306 306 308 310 312 316 316 317 317 319 321 323 321 323 322 326 325 323 325 324 329 329
265 267 270 279 287 289 289 289 292 291 288 289 292 291 299 304 303 303 302 303 301 306 306 307 308 308 307 307 309 310 312 314 317 318 319 319 320 321 324 323 324 325 326 327 328 327 329 332 331
263 265 272 283 287 284 287 289 296 283 291 292 291 294 299 299 300 302 302 299 299 302 302 305 307 307 308 309 310 312 313 315 318 320 320 320 322 324 325 324 326 327 327 327 329 330 334 337 332
259 262 273 273 272 279 285 286 283 284 289 288 287 290 291 294 296 300 300 298 299 298 301 305 309 310 311 312 312 314 314 317 320 321 321 322 324 325 325 327 329 329 329 329 330 333 338 339 334
253 258 264 261 270 284 284 287 278 284 288 290 287 287 289 291 294 300 302 304 304 304 307 308 309 311 311 312 313 314 316 318 320 322 322 323 325 325 327 329 330 331 330 330 333 338 343 339 337
251 258 259 266 276 281 282 284 279 288 292 291 291 290 286 291 297 301 305 307 305 302 302 304 308 309 311 311 313 313 316 319 321 322 323 324 325 327 329 330 331 332 331 334 337 343 345 341 341
251 258 264 269 270 278 279 278 284 286 292 292 289 284 288 296 295 304 307 304 303 301 301 304 306 310 309 311 312 314 318 320 321 321 323 324 327 330 329 331 333 331 334 337 342 349 346 343 344
258 262 264 267 274 273 274 278 282 289 291 286 286 288 291 291 297 301 301 301 298 299 302 304 308 307 308 311 312 315 319 320 321 321 323 326 329 330 331 333 333 334 338 340 347 352 348 345 346
265 266 268 268 271 275 277 278 281 293 286 285 286 288 291 297 296 299 300 297 298 302 306 309 307 308 310 311 313 317 319 320 320 322 324 327 328 331 333 334 334 337 340 344 350 355 351 348 348
263 265 266 270 269 278 285 281 286 287 284 284 290 289 290 291 295 297 302 300 299 302 305 306 307 307 308 309 313 316 318 318 320 322 325 327 330 332 333 334 336 339 342 346 353 357 352 351 352
258 263 265 269 273 277 282 283 288 296 284 292 294 294 294 296 296 295 298 299 301 303 303 306 305 307 308 309 312 315 316 317 320 322 325 328 331 332 333 336 338 341 345 348 354 357 354 353 356
258 261 267 270 272 274 279 286 287 297 293 295 292 291 294 294 293 295 296 300 304 305 304 304 306 309 309 309 312 314 315 317 319 321 325 329 331 333 335 337 340 343 348 349 357 359 355 356 357
260 263 267 270 272 272 277 282 274 290 291 293 294 292 291 292 294 292 293 294 297 299 301 305 307 308 308 309 311 312 315 317 319 320 324 329 332 333 336 338 342 345 350 351 360 1 358 359 358
260 262 265 267 270 277 275 275 284 285 288 289 292 295 297 295 291 292 295 297 297 299 301 303 306 307 308 309 310 312 315 316 317 320 324 328 332 333 336 339 343 346 351 353 1 2 359 1 360
253 256 261 270 274 278 279 278 279 279 283 283 289 293 297 298 300 298 296 296 296 299 300 302 304 305 307 310 311 314 315 315 317 319 323 327 331 332 336 339 343 348 352 354 1 3 1 1 2
254 257 261 265 268 276 281 286 276 279 282 283 285 289 293 296 301 302 301 300 297 297 300 301 304 305 307 309 311 314 314 314 316 318 322 326 329 331 335 339 344 348 352 353 1 4 2 2 3
252 257 257 260 268 273 280 284 287 281 275 277 279 283 287 291 296 299 298 298 298 298 298 300 304 306 307 308 310 313 314 314 315 317 321 324 328 330 334 339 344 348 353 354 2 4 2 2 3
253 257 259 262 264 270 275 280 285 290 289 279 277 282 284 288 292 293 293 295 299 303 305 304 306 305 308 308 311 312 312 313 314 316 319 321 327 329 333 339 345 348 352 355 1 5 3 3 3
252 254 257 263 271 274 274 274 280 285 287 286 284 281 283 286 285 286 290 293 297 301 305 304 304 304 306 305 309 310 311 311 312 314 317 319 325 328 331 338 345 349 353 356 0 5 3 4 5
Height
5828 5829 5829 5828 5830 5827 5826 5826 5825 5824 5823 5823 5822 5821 5820 5819 5818 5818 5814 5813 5812 5812 5811 5809 5807 5806 5805 5803 5802 5800 5798 5796 5794 5792 5790 5788 5785 5782 5779 5775 5772 5769 5765 5762 5759 5756 5752 5748 5745
5827 5827 5827 5827 5827 5825 5825 5824 5823 5823 5823 5822 5821 5820 5819 5818 5817 5816 5815 5813 5811 5810 5808 5806 5805 5804 5802 5801 5799 5797 5794 5793 5790 5788 5785 5782 5780 5776 5772 5769 5766 5762 5757 5753 5749 5745 5740 5737 5734
5825 5826 5826 5825 5825 5824 5824 5823 5822 5821 5821 5820 5820 5819 5818 5817 5816 5815 5813 5812 5810 5807 5806 5805 5803 5802 5800 5798 5796 5794 5792 5789 5787 5784 5781 5778 5773 5769 5765 5762 5759 5755 5751 5746 5741 5735 5729 5724 5719
5823 5824 5825 5824 5823 5823 5822 5822 5821 5820 5819 5819 5818 5817 5816 5815 5814 5813 5811 5809 5808 5806 5804 5802 5801 5800 5798 5796 5794 5792 5789 5787 5783 5780 5776 5773 5769 5765 5760 5756 5750 5745 5739 5735 5730 5725 5719 5714 5707
5821 5821 5821 5821 5822 5822 5821 5820 5819 5819 5818 5817 5816 5815 5814 5813 5812 5810 5809 5807 5805 5804 5802 5800 5799 5797 5795 5794 5791 5789 5786 5784 5781 5776 5772 5768 5764 5759 5754 5749 5743 5737 5731 5725 5719 5711 5704 5698 5691
5819 5819 5819 5819 5820 5819 5818 5818 5817 5817 5816 5815 5814 5813 5812 5811 5809 5808 5807 5805 5803 5801 5799 5798 5796 5795 5793 5791 5788 5786 5783 5780 5776 5772 5768 5763 5758 5753 5748 5742 5736 5730 5723 5717 5708 5700 5692 5683 5674
5817 5817 5817 5817 5818 5817 5817 5816 5815 5815 5814 5813 5813 5812 5811 5809 5807 5805 5804 5803 5801 5799 5797 5795 5794 5792 5790 5787 5784 5783 5779 5775 5771 5767 5762 5757 5751 5746 5741 5734 5728 5721 5714 5706 5700 5691 5681 5667 5654
5814 5815 5815 5815 5815 5815 5815 5814 5814 5813 5812 5811 5811 5809 5809 5807 5804 5802 5801 5799 5798 5795 5794 5793 5791 5789 5786 5783 5782 5779 5775 5771 5766 5761 5756 5751 5745 5740 5734 5727 5720 5712 5704 5697 5686 5674 5662 5652 5640
5812 5813 5813 5814 5813 5813 5813 5813 5812 5812 5811 5810 5808 5807 5806 5804 5801 5799 5798 5796 5793 5792 5791 5789 5787 5785 5783 5780 5777 5774 5769 5765 5761 5755 5750 5745 5740 5733 5727 5720 5712 5703 5694 5684 5673 5661 5648 5632 5617
5810 5811 5811 5811 5810 5810 5810 5810 5810 5809 5808 5807 5806 5804 5802 5800 5798 5796 5795 5792 5791 5790 5787 5784 5783 5781 5778 5776 5772 5768 5765 5760 5755 5750 5745 5739 5733 5726 5719 5711 5703 5694 5684 5673 5660 5647 5631 5614 5597
5808 5808 5808 5808 5807 5807 5807 5806 5806 5805 5805 5803 5802 5800 5798 5796 5794 5793 5791 5789 5788 5786 5782 5781 5779 5776 5774 5771 5768 5763 5759 5755 5750 5744 5739 5733 5726 5719 5711 5702 5694 5685 5674 5662 5648 5633 5616 5597 5572
5804 5804 5805 5804 5805 5804 5804 5803 5802 5802 5800 5798 5797 5796 5794 5793 5791 5789 5787 5786 5784 5781 5780 5778 5775 5772 5770 5766 5762 5758 5754 5749 5744 5738 5733 5726 5719 5711 5703 5693 5684 5674 5662 5650 5636 5620 5600 5577 5550
5801 5801 5801 5801 5801 5801 5800 5799 5799 5797 5795 5794 5793 5792 5791 5790 5787 5785 5784 5783 5780 5779 5777 5774 5771 5768 5764 5761 5757 5753 5749 5744 5739 5732 5726 5719 5711 5703 5694 5684 5674 5662 5649 5635 5620 5604 5585 5560 5531
5798 5797 5797 5798 5797 5796 5796 5795 5795 5792 5791 5790 5789 5788 5787 5785 5783 5782 5780 5777 5776 5774 5772 5769 5766 5763 5760 5756 5752 5748 5744 5739 5733 5726 5719 5711 5704 5695 5686 5675 5664 5651 5637 5622 5605 5588 5565 5536 5510
5793 5793 5793 5793 5792 5792 5791 5792 5790 5788 5786 5786 5784 5783 5782 5780 5779 5777 5774 5772 5771 5769 5767 5765 5763 5760 5756 5752 5748 5744 5739 5733 5727 5720 5713 5704 5696 5687 5678 5667 5655 5641 5627 5612 5596 5575 5549 5521 5496
5789 5789 5789 5790 5787 5788 5787 5788 5785 5782 5782 5780 5778 5778 5777 5775 5774 5772 5771 5769 5768 5766 5764 5761 5759 5755 5751 5747 5742 5738 5732 5727 5720 5713 5705 5697 5689 5679 5669 5657 5645 5632 5617 5602 5584 5563 5537 5509 5485
5785 5785 5785 5784 5783 5783 5782 5783 5780 5778 5776 5774 5773 5772 5771 5770 5769 5767 5765 5764 5763 5760 5758 5756 5753 5750 5746 5742 5737 5731 5726 5720 5713 5706 5699 5690 5682 5672 5660 5650 5636 5622 5608 5591 5573 5548 5521 5498 5478
5780 5780 5781 5779 5781 5778 5778 5778 5776 5774 5773 5770 5768 5766 5766 5765 5763 5761 5761 5759 5757 5755 5753 5750 5748 5745 5740 5736 5731 5726 5720 5714 5708 5700 5693 5684 5675 5665 5653 5641 5628 5615 5599 5582 5564 5537 5510 5486 5468
5776 5776 5777 5774 5774 5774 5773 5774 5772 5769 5769 5765 5763 5762 5762 5760 5758 5757 5756 5755 5753 5751 5749 5746 5743 5739 5735 5731 5725 5720 5715 5709 5702 5695 5687 5679 5668 5659 5647 5635 5622 5607 5591 5575 5555 5529 5505 5482 5462
5771 5771 5772 5770 5769 5768 5768 5769 5768 5766 5761 5759 5760 5758 5757 5756 5754 5753 5751 5749 5747 5746 5744 5740 5737 5734 5730 5726 5720 5715 5709 5703 5697 5690 5682 5672 5662 5653 5641 5629 5616 5601 5585 5569 5548 5523 5499 5472 5451
5765 5765 5765 5765 5765 5763 5763 5764 5765 5762 5755 5756 5755 5755 5753 5751 5750 5749 5747 5745 5742 5740 5737 5734 5731 5727 5724 5719 5715 5709 5704 5697 5691 5684 5676 5667 5657 5647 5635 5623 5610 5596 5580 5563 5542 5518 5495 5472 5450
5758 5760 5759 5759 5759 5760 5759 5758 5760 5756 5752 5751 5751 5750 5749 5747 5745 5744 5742 5740 5737 5735 5732 5729 5725 5721 5717 5712 5708 5703 5698 5692 5685 5678 5670 5661 5651 5641 5630 5618 5606 5591 5576 5558 5538 5514 5492 5470 5454
5754 5753 5753 5752 5751 5753 5755 5752 5755 5751 5747 5746 5746 5746 5744 5742 5741 5739 5738 5735 5732 5730 5727 5724 5720 5716 5711 5707 5702 5698 5692 5686 5679 5672 5664 5655 5646 5636 5625 5614 5602 5588 5573 5555 5535 5513 5491 5472 5455
5747 5748 5746 5745 5744 5742 5750 5747 5754 5745 5742 5740 5739 5739 5738 5736 5735 5733 5731 5729 5727 5724 5721 5718 5714 5710 5706 5702 5697 5692 5687 5680 5674 5667 5659 5650 5641 5631 5621 5610 5598 5585 5570 5553 5533 5511 5491 5475 5458
5740 5740 5737 5736 5736 5735 5741 5740 5747 5742 5739 5736 5733 5733 5732 5731 5729 5727 5725 5723 5721 5718 5715 5711 5708 5705 5700 5696 5691 5686 5680 5674 5668 5661 5654 5645 5636 5626 5617 5607 5596 5583 5568 5551 5532 5512 5492 5476 5462
5730 5730 5731 5728 5727 5726 5728 5732 5740 5736 5735 5731 5728 5727 5726 5724 5722 5721 5718 5716 5715 5712 5709 5706 5703 5699 5694 5690 5685 5680 5674 5668 5663 5656 5648 5640 5631 5622 5613 5604 5593 5581 5566 5549 5531 5512 5495 5478 5464
5721 5721 5727 5722 5719 5717 5717 5719 5730 5730 5727 5725 5722 5720 5719 5717 5716 5715 5712 5710 5708 5706 5704 5700 5697 5693 5689 5684 5679 5674 5669 5663 5657 5651 5643 5635 5627 5618 5610 5601 5591 5580 5565 5548 5531 5513 5496 5480 5467
5711 5717 5715 5715 5713 5709 5709 5710 5711 5724 5721 5718 5717 5714 5713 5711 5709 5706 5704 5702 5701 5700 5698 5694 5690 5686 5682 5677 5673 5669 5663 5658 5651 5645 5638 5631 5622 5614 5607 5598 5589 5578 5564 5548 5532 5513 5497 5482 5469
5703 5703 5707 5709 5706 5705 5702 5701 5702 5707 5712 5712 5711 5709 5707 5705 5703 5699 5695 5692 5691 5692 5692 5687 5683 5679 5675 5671 5666 5662 5657 5652 5645 5640 5633 5626 5618 5610 5603 5596 5587 5576 5563 5549 5532 5514 5498 5483 5471
5691 5693 5697 5698 5700 5697 5695 5694 5697 5699 5702 5699 5702 5703 5702 5697 5694 5693 5688 5683 5683 5684 5687 5683 5677 5672 5668 5664 5659 5654 5650 5645 5640 5634 5628 5621 5614 5607 5600 5593 5584 5574 5563 5549 5533 5516 5500 5486 5473